TimeEDT,TemperatureF,Dew PointF,Humidity,Sea Level PressureIn,VisibilityMPH,Wind Direction,Wind SpeedMPH,Gust SpeedMPH,PrecipitationIn,Events,Conditions,WindDirDegrees,DateUTC
12:54 AM,51.8,48.2,88,30.19,9.0,Calm,Calm,-,N/A,,Clear,0,2008-04-10 04:54:00
1:54 AM,51.1,48.0,89,30.14,9.0,Calm,Calm,-,N/A,,Clear,0,2008-04-10 05:54:00
2:54 AM,48.9,46.9,93,30.13,6.0,Calm,Calm,-,N/A,,Clear,0,2008-04-10 06:54:00
3:54 AM,46.9,46.0,97,30.12,5.0,Calm,Calm,-,N/A,,Clear,0,2008-04-10 07:54:00
4:54 AM,46.0,45.0,96,30.11,6.0,Calm,Calm,-,N/A,,Clear,0,2008-04-10 08:54:00
5:54 AM,46.0,45.0,96,30.12,6.0,Calm,Calm,-,N/A,,Clear,0,2008-04-10 09:54:00
7:54 AM,46.4,44.6,93,30.17,6.0,Calm,Calm,-,N/A,,Clear,0,2008-04-10 11:54:00
8:54 AM,50.0,48.2,94,30.18,7.0,SSE,3.5,-,N/A,,Clear,150,2008-04-10 12:54:00
9:54 AM,57.9,50.0,75,30.14,10.0,SE,3.5,-,N/A,,Clear,130,2008-04-10 13:54:00
10:54 AM,63.0,52.0,67,30.13,10.0,Variable,4.6,-,N/A,,Clear,0,2008-04-10 14:54:00
11:54 AM,66.9,50.0,54,30.12,10.0,SE,8.1,-,N/A,,Clear,140,2008-04-10 15:54:00
12:54 PM,69.1,48.0,47,30.10,10.0,South,13.8,-,N/A,,Clear,170,2008-04-10 16:54:00
1:54 PM,70.0,45.0,41,30.08,10.0,ESE,10.4,18.4,N/A,,Clear,110,2008-04-10 17:54:00
2:54 PM,70.0,46.0,42,30.06,10.0,ESE,12.7,19.6,N/A,,Clear,120,2008-04-10 18:54:00
3:54 PM,71.1,48.0,44,30.06,10.0,SSE,11.5,-,N/A,,Clear,160,2008-04-10 19:54:00
4:54 PM,71.1,45.0,39,30.04,10.0,South,10.4,-,N/A,,Clear,170,2008-04-10 20:54:00
5:54 PM,69.1,46.0,44,30.04,10.0,South,9.2,-,N/A,,Clear,170,2008-04-10 21:54:00
6:54 PM,68.0,46.0,45,30.04,10.0,SSE,8.1,-,N/A,,Clear,150,2008-04-10 22:54:00
7:54 PM,66.9,46.0,47,30.03,10.0,SSE,10.4,-,N/A,,Clear,150,2008-04-10 23:54:00
8:54 PM,64.0,46.0,52,30.03,10.0,SSE,5.8,-,N/A,,Clear,150,2008-04-11 00:54:00
9:54 PM,60.1,46.9,62,30.04,10.0,SSE,3.5,-,N/A,,Clear,150,2008-04-11 01:54:00
10:54 PM,57.0,46.9,69,30.03,10.0,Calm,Calm,-,N/A,,Clear,0,2008-04-11 02:54:00
11:54 PM,55.4,46.4,72,30.06,10.0,Calm,Calm,-,N/A,,Partly Cloudy,0,2008-04-11 03:54:00